UAE19P OEDF-OMDB

Flight info

Callsign UAE19P
Flight time N/A
Altitude 25000
Route ROTEL1E/34L ROTEL DCT DAVRI P559 VUTEB
Aircraft A359/H-SDE2E3GHIJ3J4J5LM1ORWXY/LB1D1

Departure

Time 2026-04-22 11:56
Airport King Fahd International Airport (OEDF)

Arrival

Time N/A
Airport Dubai International Airport (OMDB)
Time Latitude Longitude Altitude Speed Heading
2026-04-22 11:34 26.47028 49.79427 74 ft 0 kts 66°
2026-04-22 11:47 26.47023 49.79413 63 ft 3 kts 66°
2026-04-22 11:47 26.47015 49.79394 67 ft 3 kts 66°
2026-04-22 11:47 26.47007 49.79374 63 ft 3 kts 55°
2026-04-22 11:47 26.46993 49.79357 63 ft 3 kts 33°
2026-04-22 11:48 26.46974 49.79347 63 ft 3 kts 11°
2026-04-22 11:48 26.46963 49.79345 63 ft 0 kts 359°
2026-04-22 11:50 26.46994 49.79338 62 ft 6 kts 340°
2026-04-22 11:51 26.47027 49.79310 62 ft 4 kts 306°
2026-04-22 11:51 26.47028 49.79285 63 ft 5 kts 271°
2026-04-22 11:51 26.47021 49.79246 62 ft 6 kts 253°
2026-04-22 11:51 26.47005 49.79188 65 ft 9 kts 253°
2026-04-22 11:52 26.46976 49.79090 63 ft 16 kts 242°
2026-04-22 11:52 26.46917 49.79065 68 ft 10 kts 170°
2026-04-22 11:52 26.46790 49.79105 63 ft 23 kts 164°
2026-04-22 11:52 26.46630 49.79153 67 ft 25 kts 165°
2026-04-22 11:53 26.46460 49.79205 64 ft 27 kts 165°
2026-04-22 11:53 26.46274 49.79259 67 ft 28 kts 165°
2026-04-22 11:53 26.46079 49.79321 66 ft 30 kts 163°
2026-04-22 11:53 26.45873 49.79385 69 ft 31 kts 164°
2026-04-22 11:54 26.45656 49.79444 65 ft 30 kts 184°
2026-04-22 11:54 26.45603 49.79379 66 ft 10 kts 251°
2026-04-22 11:54 26.45579 49.79293 66 ft 13 kts 254°
2026-04-22 11:54 26.45571 49.79186 69 ft 15 kts 283°
2026-04-22 11:55 26.45638 49.79134 65 ft 12 kts 340°
2026-04-22 11:55 26.45843 49.79066 64 ft 62 kts 345°
2026-04-22 11:55 26.46500 49.78867 63 ft 131 kts 345°
2026-04-22 11:55 26.47560 49.78523 221 ft 178 kts 345°
2026-04-22 11:56 26.48803 49.78051 821 ft 192 kts 342°
2026-04-22 11:56 26.50043 49.77588 1810 ft 193 kts 346°
2026-04-22 11:56 26.51365 49.77190 2661 ft 199 kts 348°
2026-04-22 11:56 26.52733 49.76869 3462 ft 204 kts 347°
2026-04-22 11:57 26.54156 49.76555 4219 ft 211 kts 346°
2026-04-22 11:57 26.55653 49.76698 4803 ft 232 kts 15°
2026-04-22 11:57 26.57037 49.77810 5207 ft 262 kts 49°
2026-04-22 11:57 26.57802 49.79744 5475 ft 285 kts 77°
2026-04-22 11:58 26.58130 49.81974 5952 ft 295 kts 82°
2026-04-22 11:58 26.58439 49.84249 6553 ft 299 kts 81°
2026-04-22 11:58 26.58779 49.86556 7193 ft 302 kts 81°
2026-04-22 11:58 26.59142 49.88888 7793 ft 305 kts 81°
2026-04-22 11:59 26.59513 49.91205 8411 ft 308 kts 81°
2026-04-22 11:59 26.59896 49.93566 9074 ft 310 kts 82°
2026-04-22 11:59 26.60285 49.95946 9698 ft 313 kts 82°
2026-04-22 11:59 26.60680 49.98367 10139 ft 322 kts 82°
2026-04-22 12:00 26.61091 50.00892 10385 ft 337 kts 82°
2026-04-22 12:00 26.61521 50.03523 10623 ft 352 kts 82°
2026-04-22 12:00 26.61971 50.06266 10848 ft 365 kts 82°
2026-04-22 12:00 26.62436 50.09109 11063 ft 378 kts 81°
2026-04-22 12:01 26.62911 50.12008 11284 ft 388 kts 81°
2026-04-22 12:01 26.63403 50.15013 11597 ft 396 kts 81°
2026-04-22 12:01 26.63909 50.18066 11954 ft 401 kts 81°
2026-04-22 12:01 26.64444 50.21150 12316 ft 406 kts 80°
2026-04-22 12:02 26.64992 50.24278 12691 ft 411 kts 80°
2026-04-22 12:02 26.65540 50.27426 13062 ft 415 kts 80°
2026-04-22 12:02 26.66093 50.30614 13428 ft 419 kts 80°
2026-04-22 12:02 26.66642 50.33793 13759 ft 424 kts 80°
2026-04-22 12:03 26.67258 50.37038 14143 ft 426 kts 77°
2026-04-22 12:03 26.68009 50.40249 14576 ft 427 kts 75°
2026-04-22 12:03 26.68843 50.43447 14980 ft 428 kts 73°
2026-04-22 12:03 26.69712 50.46640 15389 ft 430 kts 73°
2026-04-22 12:04 26.70593 50.49853 15811 ft 432 kts 73°
2026-04-22 12:04 26.71469 50.53072 16225 ft 433 kts 73°
2026-04-22 12:04 26.72326 50.56266 16615 ft 435 kts 73°
2026-04-22 12:04 26.73191 50.59524 17002 ft 438 kts 74°
2026-04-22 12:05 26.74052 50.62797 17416 ft 439 kts 74°
2026-04-22 12:05 26.74913 50.66086 17826 ft 441 kts 74°
2026-04-22 12:05 26.75776 50.69392 18208 ft 443 kts 74°
2026-04-22 12:05 26.76645 50.72722 18525 ft 446 kts 74°
2026-04-22 12:06 26.77515 50.76056 18845 ft 449 kts 74°
2026-04-22 12:06 26.78394 50.79429 19172 ft 451 kts 74°
2026-04-22 12:06 26.79275 50.82809 19485 ft 454 kts 74°
2026-04-22 12:06 26.80151 50.86173 19796 ft 456 kts 74°
2026-04-22 12:07 26.81048 50.89633 20127 ft 458 kts 74°
2026-04-22 12:07 26.81678 50.93088 20429 ft 460 kts 84°
2026-04-22 12:07 26.81704 50.96674 20745 ft 459 kts 98°
2026-04-22 12:07 26.81021 51.00145 21060 ft 457 kts 110°
2026-04-22 12:08 26.79958 51.03509 21363 ft 457 kts 115°
2026-04-22 12:08 26.78735 51.06805 21669 ft 458 kts 117°
2026-04-22 12:08 26.77456 51.10035 21957 ft 460 kts 118°
2026-04-22 12:08 26.76213 51.13346 22245 ft 464 kts 115°
2026-04-22 12:09 26.75066 51.16743 22529 ft 466 kts 113°
2026-04-22 12:09 26.73976 51.20167 22836 ft 469 kts 112°
2026-04-22 12:09 26.72900 51.23622 23130 ft 471 kts 112°
2026-04-22 12:09 26.71818 51.27096 23419 ft 473 kts 112°
2026-04-22 12:10 26.70736 51.30540 23661 ft 474 kts 112°
2026-04-22 12:10 26.69627 51.34033 23908 ft 476 kts 112°
2026-04-22 12:10 26.68507 51.37533 24163 ft 478 kts 113°
2026-04-22 12:10 26.67377 51.41043 24424 ft 479 kts 113°
2026-04-22 12:11 26.66243 51.44557 24677 ft 481 kts 113°
2026-04-22 12:11 26.65123 51.48037 24930 ft 482 kts 113°
2026-04-22 12:11 26.63983 51.51585 25193 ft 484 kts 113°
2026-04-22 12:11 26.62841 51.55134 25451 ft 486 kts 113°
2026-04-22 12:12 26.61690 51.58707 25704 ft 488 kts 113°
2026-04-22 12:12 26.60550 51.62244 25961 ft 490 kts 113°
2026-04-22 12:12 26.59389 51.65842 26212 ft 492 kts 113°
2026-04-22 12:12 26.58226 51.69444 26467 ft 494 kts 113°
2026-04-22 12:13 26.57059 51.73064 26728 ft 496 kts 112°
2026-04-22 12:13 26.55886 51.76703 27002 ft 498 kts 112°
2026-04-22 12:13 26.54704 51.80364 27262 ft 500 kts 112°
2026-04-22 12:13 26.53518 51.84022 27533 ft 502 kts 112°
2026-04-22 12:14 26.52338 51.87654 27820 ft 505 kts 112°
2026-04-22 12:14 26.51132 51.91349 28124 ft 507 kts 113°
2026-04-22 12:14 26.49901 51.95057 28420 ft 509 kts 113°
2026-04-22 12:14 26.48658 51.98772 28712 ft 511 kts 113°
2026-04-22 12:15 26.47409 52.02496 29022 ft 513 kts 113°
2026-04-22 12:15 26.46155 52.06240 29325 ft 516 kts 113°
2026-04-22 12:15 26.44896 52.10002 29628 ft 518 kts 112°
2026-04-22 12:15 26.43632 52.13785 29822 ft 523 kts 112°
2026-04-22 12:16 26.41059 52.21476 29828 ft 535 kts 112°
2026-04-22 12:16 26.38450 52.29268 29826 ft 536 kts 112°
2026-04-22 12:17 26.35836 52.37057 29819 ft 535 kts 112°
2026-04-22 12:17 26.33108 52.44762 29819 ft 534 kts 116°
2026-04-22 12:18 26.30996 52.50152 29811 ft 534 kts 116°
2026-04-22 12:18 26.27993 52.57744 29809 ft 535 kts 116°
2026-04-22 12:19 26.25028 52.65356 29814 ft 535 kts 116°
2026-04-22 12:19 26.22091 52.72988 29810 ft 536 kts 116°
2026-04-22 12:20 26.19164 52.80649 29808 ft 536 kts 116°
2026-04-22 12:20 26.16255 52.88250 29804 ft 537 kts 116°
2026-04-22 12:21 26.13577 52.95225 29804 ft 538 kts 116°
2026-04-22 12:21 26.10630 53.02877 29797 ft 538 kts 116°
2026-04-22 12:22 26.07741 53.10550 29797 ft 538 kts 115°
2026-04-22 12:22 26.04932 53.18262 29798 ft 538 kts 115°
2026-04-22 12:23 26.02118 53.25965 29795 ft 538 kts 115°
2026-04-22 12:23 25.99299 53.33621 29797 ft 538 kts 115°
2026-04-22 12:24 25.96454 53.41312 29793 ft 538 kts 115°
2026-04-22 12:24 25.93605 53.48996 29791 ft 538 kts 115°
2026-04-22 12:25 25.90846 53.56720 29787 ft 538 kts 113°
2026-04-22 12:25 25.88201 53.64512 29788 ft 538 kts 113°
2026-04-22 12:26 25.85566 53.72246 29782 ft 538 kts 113°
2026-04-22 12:26 25.82888 53.80017 29784 ft 538 kts 113°
2026-04-22 12:27 25.80188 53.87768 29784 ft 538 kts 113°
2026-04-22 12:27 25.77489 53.95505 29777 ft 537 kts 113°
2026-04-22 12:28 25.76494 53.98355 29780 ft 537 kts 113°
2026-04-22 12:40 25.76465 53.98438 29779 ft 537 kts 113°